BEIDOU 11

Last updated on Jan. 23, 2021, 7:14 a.m. UTC

1 38091U 12008A   21022.93229762  .00000068  00000-0  00000-0 0  9993
2 38091   1.9463  71.5194 0003770 240.8779 204.4113  1.00269976 32715
UTC
Height (km)
Latitude
Longitude
Inclination
Orbital Period
UTC large
Height (km)
Speed (km/s)
/
Latitude / Longitude
Inclination (degrees)
Orbital Period (minutes)
Azimuth
Elevation
Range (km)
Doppler Factor
iOS Compass Heading
iOS Angle

Next 30 passes for location: Hong Kong

Rise time Rise Azimuth (degrees) Set time Set Azimuth (degrees) Duration Max altitude (degrees)

No matching passes for this satellites